Austin, TX

2:29 PM CDT on October 22, 2017 (GMT -0500)
Austin

Weather History for KATT - March, 2014

Change the Weather History Date:

Saturday, March 15, 2014

  Actual Average Record
Temperature  
Mean Temperature 68 °F 62 °F  
Max Temperature 74 °F 72 °F 92 °F (2016)
Min Temperature 62 °F 51 °F 29 °F (1924)
Degree Days  
Heating Degree Days 0 5  
Month to date heating degree days 163 100  
Since 1 July heating degree days 1659 1437  
Cooling Degree Days 3 2  
Month to date cooling degree days 11 20  
Year to date cooling degree days 52 47  
Growing Degree Days 18 (Base 50)    
Moisture  
Dew Point 62 °F    
Average Humidity 81    
Maximum Humidity 93    
Minimum Humidity 68    
Precipitation  
Precipitation 0.07 in 0.10 in 1.46 in (1931)
Month to date precipitation 1.26 1.34  
Year to date precipitation 2.09 5.58  
Snow  
Snow 0.00 in - - ()
Month to date snowfall T  
Since 1 July snowfall 0.2  
Snow Depth 0.00 in    
Sea Level Pressure  
Sea Level Pressure 29.86 in    
Wind  
Wind Speed 4 mph (SE)    
Max Wind Speed 12 mph    
Max Gust Speed 17 mph    
Visibility 5 miles    
Events Fog , Rain    
T = Trace of Precipitation, MM = Missing Value Source: NWS Daily Summary

Daily Weather History Graph

Daily Weather History Graph

Search for Another Location

Airport or City:

Trip Planner

Search our weather history database for the weather conditions in past years. The results will help you decide how hot, cold, wet, or windy it might be!

Date:

Astronomy

Mar. 15, 2014 Rise Set
Actual Time 7:40 AM CDT 7:39 PM CDT
Civil Twilight 7:16 AM CDT 8:03 PM CDT
Nautical Twilight 6:49 AM CDT 8:31 PM CDT
Astronomical Twilight 6:21 AM CDT 8:59 PM CDT
Moon 7:00 PM CDT (3/15) 6:51 AM CDT (3/15)
Length of Visible Light 12h 46m
Length of Day
11h 58m
Waxing Gibbous, 99% of the Moon is Illuminated
Mar 15
Waxing Gibbous
Mar 16
Full
Mar 23
Last Quarter
Mar 30
New
Apr 7
First Quarter

Hourly Weather History & Observations

Time (CDT) Temp. Dew Point Humidity Pressure Visibility Wind Dir Wind Speed Gust Speed Precip Events Conditions
12:51 AM 64.0 °F 59.0 °F 84% 29.97 in 10.0 mi SE 8.1 mph - N/A   Overcast
1:51 AM 64.0 °F 59.0 °F 84% 29.96 in 10.0 mi SE 3.5 mph - N/A   Overcast
2:51 AM 64.0 °F 59.0 °F 84% 29.95 in 9.0 mi SSE 5.8 mph - N/A   Overcast
3:03 AM 64.0 °F 60.1 °F 87% 29.96 in 8.0 mi SSE 5.8 mph - N/A   Overcast
3:46 AM 62.6 °F 60.8 °F 94% 29.95 in 2.5 mi SSE 5.8 mph - N/A   Overcast
3:51 AM 63.0 °F 61.0 °F 93% 29.93 in 2.0 mi SE 4.6 mph - N/A   Overcast
4:04 AM 62.1 °F 61.0 °F 96% 29.95 in 1.8 mi SSE 4.6 mph - N/A   Overcast
4:30 AM 62.1 °F 61.0 °F 96% 29.95 in 1.2 mi Variable 3.5 mph - N/A   Overcast
4:51 AM 62.1 °F 61.0 °F 96% 29.93 in 1.5 mi East 3.5 mph - N/A   Overcast
5:42 AM 62.1 °F 61.0 °F 96% 29.93 in 2.0 mi ESE 3.5 mph - 0.00 in   Overcast
5:51 AM 62.1 °F 61.0 °F 96% 29.91 in 2.0 mi ESE 3.5 mph - 0.00 in   Overcast
6:00 AM 62.1 °F 61.0 °F 96% 29.94 in 1.8 mi SE 4.6 mph - N/A   Overcast
6:40 AM 62.1 °F 61.0 °F 96% 29.93 in 0.8 mi Calm Calm - N/A   Overcast
6:51 AM 62.1 °F 61.0 °F 96% 29.91 in 0.8 mi SE 4.6 mph - N/A   Overcast
7:00 AM 62.1 °F 61.0 °F 96% 29.93 in 1.0 mi SE 4.6 mph - N/A   Overcast
7:29 AM 62.1 °F 61.0 °F 96% 29.92 in 0.8 mi ESE 4.6 mph - N/A   Overcast
7:51 AM 62.1 °F 61.0 °F 96% 29.90 in 0.5 mi ESE 4.6 mph - N/A Fog Fog
8:28 AM 62.1 °F 61.0 °F 96% 29.92 in 0.2 mi ESE 5.8 mph - N/A Fog Fog
8:51 AM 62.1 °F 61.0 °F 96% 29.91 in 0.2 mi Calm Calm - N/A Fog Fog
9:48 AM 62.6 °F 62.6 °F 100% 29.93 in 0.5 mi East 4.6 mph - 0.01 in Fog , Rain Light Rain
9:51 AM 63.0 °F 62.1 °F 97% 29.92 in 0.8 mi Calm Calm - 0.01 in Rain Light Rain
9:59 AM 63.0 °F 62.1 °F 97% 29.93 in 1.0 mi East 5.8 mph - 0.01 in Rain Light Rain
10:42 AM 63.0 °F 62.1 °F 97% 29.93 in 3.0 mi Variable 4.6 mph - 0.06 in Rain Light Rain
10:51 AM 63.0 °F 62.1 °F 97% 29.91 in 4.0 mi ESE 4.6 mph - 0.06 in   Overcast
10:59 AM 63.0 °F 62.1 °F 97% 29.92 in 1.8 mi ESE 3.5 mph - 0.00 in Rain Light Rain
11:12 AM 64.0 °F 63.0 °F 96% 29.92 in 3.0 mi SSE 6.9 mph - 0.00 in   Overcast
11:42 AM 64.9 °F 64.0 °F 97% 29.92 in 2.5 mi Variable 4.6 mph - 0.00 in   Overcast
11:51 AM 64.0 °F 63.0 °F 96% 29.90 in 2.0 mi Variable 5.8 mph - 0.00 in   Overcast
11:58 AM 64.9 °F 63.0 °F 93% 29.91 in 1.8 mi Variable 4.6 mph - 0.00 in Rain Light Rain
12:06 PM 64.9 °F 64.0 °F 97% 29.91 in 2.5 mi SSE 8.1 mph - 0.00 in   Overcast
12:13 PM 64.9 °F 64.0 °F 97% 29.90 in 3.0 mi SE 4.6 mph - 0.00 in   Overcast
12:34 PM 64.9 °F 64.0 °F 97% 29.90 in 4.0 mi SE 5.8 mph - 0.00 in   Overcast
12:51 PM 66.0 °F 64.0 °F 93% 29.87 in 4.0 mi Variable 5.8 mph - 0.00 in Rain Light Rain
1:32 PM 66.0 °F 64.0 °F 93% 29.87 in 3.0 mi SSE 4.6 mph - 0.00 in   Overcast
1:51 PM 66.9 °F 64.0 °F 90% 29.83 in 4.0 mi SE 5.8 mph - 0.00 in   Overcast
1:54 PM 66.9 °F 64.0 °F 90% 29.85 in 4.0 mi SSE 5.8 mph - N/A   Overcast
2:19 PM 66.9 °F 64.0 °F 90% 29.82 in 6.0 mi South 5.8 mph - N/A   Overcast
2:28 PM 66.9 °F 64.0 °F 90% 29.81 in 5.0 mi South 4.6 mph - N/A   Mostly Cloudy
2:47 PM 68.0 °F 64.4 °F 88% 29.80 in 5.0 mi South 5.8 mph - N/A   Overcast
2:51 PM 68.0 °F 64.0 °F 87% 29.78 in 5.0 mi Variable 4.6 mph - N/A   Overcast
3:19 PM 69.1 °F 64.0 °F 84% 29.78 in 7.0 mi Variable 5.8 mph 16.1 mph N/A   Mostly Cloudy
3:30 PM 70.0 °F 63.0 °F 78% 29.77 in 9.0 mi Variable 6.9 mph - N/A   Overcast
3:51 PM 70.0 °F 63.0 °F 78% 29.74 in 10.0 mi Variable 6.9 mph - N/A   Overcast
4:10 PM 71.1 °F 63.0 °F 75% 29.75 in 10.0 mi Variable 5.8 mph - N/A   Overcast
4:25 PM 71.1 °F 63.0 °F 75% 29.74 in 10.0 mi South 9.2 mph - N/A   Mostly Cloudy
4:51 PM 73.0 °F 63.0 °F 71% 29.71 in 10.0 mi South 8.1 mph - N/A   Mostly Cloudy
5:00 PM 72.0 °F 62.1 °F 71% 29.72 in 10.0 mi SSW 5.8 mph - N/A   Mostly Cloudy
5:15 PM 72.0 °F 62.1 °F 71% 29.72 in 10.0 mi SSW 6.9 mph - N/A   Scattered Clouds
5:51 PM 73.9 °F 62.1 °F 66% 29.68 in 10.0 mi SSW 5.8 mph - N/A   Clear
6:51 PM 73.0 °F 62.1 °F 68% 29.68 in 10.0 mi Variable 3.5 mph - N/A   Clear
7:51 PM 69.1 °F 61.0 °F 75% 29.69 in 10.0 mi Calm Calm - N/A   Clear
8:51 PM 66.9 °F 60.1 °F 79% 29.69 in 10.0 mi SSE 3.5 mph - N/A   Clear
9:51 PM 69.1 °F 59.0 °F 70% 29.69 in 10.0 mi SSE 3.5 mph - N/A   Clear
10:51 PM 66.9 °F 59.0 °F 76% 29.72 in 10.0 mi Calm Calm - N/A   Clear
11:51 PM 64.9 °F 59.0 °F 81% 29.73 in 10.0 mi Calm Calm - N/A   Clear